Williams, AZ

5:16 AM MST on March 26, 2017 (GMT -0700)
Williams

Weather History for KCMR - August, 2013

Change the Weather History Date:

Thursday, August 8, 2013

  Actual Average (K40G) Record (K40G)
Temperature  
Mean Temperature 63 °F -  
Max Temperature 78 °F 84 °F 96 °F (1996)
Min Temperature 48 °F 74 °F 73 °F (2000)
Degree Days  
Heating Degree Days 2    
Growing Degree Days 13 (Base 50)    
Moisture  
Dew Point 34 °F    
Average Humidity 36    
Maximum Humidity 71    
Minimum Humidity 16    
Precipitation  
Precipitation 0.00 in - - ()
Sea Level Pressure  
Sea Level Pressure 30.31 in    
Wind  
Wind Speed 7 mph (South)    
Max Wind Speed 13 mph    
Max Gust Speed 17 mph    
Visibility 10 miles    
Events      
Averages and records for this station are not official NWS values.
T = Trace of Precipitation, MM = Missing Value Source: NWS Daily Summary

Daily Weather History Graph

Daily Weather History Graph

Search for Another Location

Airport or City:

Trip Planner

Search our weather history database for the weather conditions in past years. The results will help you decide how hot, cold, wet, or windy it might be!

Date:

Astronomy

Aug. 08, 2013 Rise Set
Actual Time 5:43 AM MST 7:24 PM MST
Civil Twilight 5:15 AM MST 7:52 PM MST
Nautical Twilight 4:42 AM MST 8:25 PM MST
Astronomical Twilight 4:07 AM MST 9:00 PM MST
Moon 7:27 AM MST (8/8) 8:12 PM MST (8/8)
Length of Visible Light 14h 36m
Length of Day
13h 41m
Waxing Crescent, 3% of the Moon is Illuminated
Aug 8
Waxing Crescent
Aug 14
First Quarter
Aug 20
Full
Aug 28
Last Quarter
Sep 5
New

Hourly Weather History & Observations

Time (MST) Temp. Dew Point Humidity Pressure Visibility Wind Dir Wind Speed Gust Speed Precip Events Conditions
12:15 AM 59.0 °F 39.2 °F 48% 30.33 in 10.0 mi East 3.5 mph - N/A   Clear
12:35 AM 59.0 °F 37.4 °F 45% 30.33 in 10.0 mi Calm Calm - N/A   Clear
12:55 AM 57.2 °F 37.4 °F 48% 30.32 in 10.0 mi Calm Calm - N/A   Clear
1:15 AM 55.4 °F 39.2 °F 54% 30.33 in 10.0 mi SSE 4.6 mph - N/A   Clear
1:35 AM 53.6 °F 39.2 °F 58% 30.32 in 10.0 mi SSE 5.8 mph - N/A   Clear
1:55 AM 53.6 °F 39.2 °F 58% 30.32 in 10.0 mi SSE 6.9 mph - N/A   Clear
2:15 AM 51.8 °F 39.2 °F 62% 30.31 in 10.0 mi SSE 6.9 mph - N/A   Clear
2:35 AM 51.8 °F 39.2 °F 62% 30.31 in 10.0 mi SSE 8.1 mph - N/A   Clear
2:55 AM 50.0 °F 39.2 °F 66% 30.31 in 10.0 mi SSE 8.1 mph - N/A   Clear
3:15 AM 50.0 °F 39.2 °F 66% 30.31 in 10.0 mi SSE 8.1 mph - N/A   Clear
3:35 AM 50.0 °F 39.2 °F 66% 30.30 in 10.0 mi SSE 8.1 mph - N/A   Clear
3:55 AM 50.0 °F 39.2 °F 66% 30.31 in 10.0 mi SSE 9.2 mph - N/A   Clear
4:15 AM 48.2 °F 39.2 °F 71% 30.30 in 10.0 mi SSE 9.2 mph - N/A   Clear
4:35 AM 48.2 °F 39.2 °F 71% 30.30 in 10.0 mi SSE 10.4 mph - N/A   Clear
4:55 AM 48.2 °F 39.2 °F 71% 30.31 in 10.0 mi SSE 9.2 mph - N/A   Clear
5:15 AM 48.2 °F 37.4 °F 66% 30.31 in 10.0 mi SSE 10.4 mph - N/A   Clear
5:35 AM 48.2 °F 35.6 °F 62% 30.32 in 10.0 mi SSE 10.4 mph - N/A   Clear
5:55 AM 50.0 °F 35.6 °F 58% 30.32 in 10.0 mi SSE 9.2 mph - N/A   Clear
6:15 AM 48.2 °F 35.6 °F 62% 30.32 in 10.0 mi SSE 10.4 mph - N/A   Clear
6:35 AM 48.2 °F 37.4 °F 66% 30.33 in 10.0 mi SSE 10.4 mph - N/A   Clear
6:55 AM 53.6 °F 37.4 °F 54% 30.33 in 10.0 mi SSE 6.9 mph - N/A   Clear
7:15 AM 57.2 °F 39.2 °F 51% 30.33 in 10.0 mi SSE 6.9 mph - N/A   Clear
7:35 AM 59.0 °F 41.0 °F 51% 30.34 in 10.0 mi SSE 6.9 mph - N/A   Clear
7:55 AM 62.6 °F 42.8 °F 48% 30.34 in 10.0 mi SE 4.6 mph - N/A   Clear
8:15 AM 66.2 °F 41.0 °F 40% 30.34 in 10.0 mi SSE 4.6 mph - N/A   Clear
8:35 AM 68.0 °F 37.4 °F 33% 30.34 in 10.0 mi SE 3.5 mph - N/A   Clear
8:55 AM 71.6 °F 32.0 °F 23% 30.34 in 10.0 mi South 8.1 mph - N/A   Clear
9:15 AM 71.6 °F 32.0 °F 23% 30.34 in 10.0 mi SSW 5.8 mph - N/A   Clear
9:35 AM 73.4 °F 30.2 °F 20% 30.34 in 10.0 mi SSW 6.9 mph - N/A   Clear
9:55 AM 73.4 °F 32.0 °F 22% 30.34 in 10.0 mi SW 10.4 mph - N/A   Clear
10:15 AM 73.4 °F 32.0 °F 22% 30.34 in 10.0 mi South 9.2 mph - N/A   Clear
10:35 AM 73.4 °F 32.0 °F 22% 30.35 in 10.0 mi SSW 11.5 mph - N/A   Clear
10:55 AM 75.2 °F 32.0 °F 21% 30.34 in 10.0 mi SSW 10.4 mph - N/A   Clear
11:15 AM 75.2 °F 32.0 °F 21% 30.34 in 10.0 mi SW 10.4 mph 17.3 mph N/A   Clear
11:35 AM 75.2 °F 28.4 °F 18% 30.34 in 10.0 mi SSE 4.6 mph - N/A   Clear
11:55 AM 75.2 °F 30.2 °F 19% 30.34 in 10.0 mi WSW 9.2 mph - N/A   Clear
12:15 PM 77.0 °F 28.4 °F 17% 30.33 in 10.0 mi SSW 6.9 mph 16.1 mph N/A   Clear
12:35 PM 75.2 °F 28.4 °F 18% 30.33 in 10.0 mi SW 5.8 mph - N/A   Clear
12:55 PM 75.2 °F 28.4 °F 18% 30.33 in 10.0 mi SSW 8.1 mph - N/A   Clear
1:15 PM 77.0 °F 28.4 °F 17% 30.33 in 10.0 mi SSW 10.4 mph - N/A   Clear
1:35 PM 77.0 °F 26.6 °F 16% 30.32 in 10.0 mi SW 9.2 mph - N/A   Clear
1:55 PM 77.0 °F 32.0 °F 19% 30.32 in 10.0 mi SW 8.1 mph - N/A   Clear
2:15 PM 77.0 °F 32.0 °F 19% 30.31 in 10.0 mi SSE 6.9 mph - N/A   Clear
2:35 PM 77.0 °F 30.2 °F 18% 30.30 in 10.0 mi SSE 8.1 mph - N/A   Clear
2:55 PM 77.0 °F 30.2 °F 18% 30.29 in 10.0 mi WSW 6.9 mph - N/A   Clear
3:15 PM 78.8 °F 32.0 °F 18% 30.29 in 10.0 mi SW 8.1 mph - N/A   Partly Cloudy
3:35 PM 77.0 °F 28.4 °F 17% 30.28 in 10.0 mi Calm Calm - N/A   Partly Cloudy
3:55 PM 78.8 °F 32.0 °F 18% 30.28 in 10.0 mi West 6.9 mph - N/A   Clear
4:15 PM 77.0 °F 32.0 °F 19% 30.27 in 10.0 mi South 6.9 mph - N/A   Partly Cloudy
4:35 PM 77.0 °F 32.0 °F 19% 30.27 in 10.0 mi SSW 11.5 mph 17.3 mph N/A   Partly Cloudy
4:55 PM 75.2 °F 33.8 °F 22% 30.27 in 10.0 mi SSW 9.2 mph - N/A   Partly Cloudy
5:15 PM 75.2 °F 35.6 °F 24% 30.27 in 10.0 mi South 8.1 mph - N/A   Partly Cloudy
5:35 PM 75.2 °F 33.8 °F 22% 30.27 in 10.0 mi SSW 8.1 mph - N/A   Mostly Cloudy
5:55 PM 75.2 °F 32.0 °F 21% 30.26 in 10.0 mi SSW 6.9 mph - N/A   Mostly Cloudy
6:15 PM 75.2 °F 32.0 °F 21% 30.26 in 10.0 mi SSW 6.9 mph - N/A   Scattered Clouds
6:35 PM 73.4 °F 30.2 °F 20% 30.26 in 10.0 mi SSW 8.1 mph - N/A   Partly Cloudy
6:55 PM 73.4 °F 32.0 °F 22% 30.26 in 10.0 mi South 12.7 mph - N/A   Clear
7:15 PM 71.6 °F 32.0 °F 23% 30.26 in 10.0 mi South 6.9 mph - N/A   Clear
7:35 PM 69.8 °F 30.2 °F 23% 30.26 in 10.0 mi South 9.2 mph - N/A   Clear
7:55 PM 66.2 °F 32.0 °F 28% 30.27 in 10.0 mi SSE 8.1 mph - N/A   Clear
8:15 PM 64.4 °F 32.0 °F 30% 30.27 in 10.0 mi South 6.9 mph - N/A   Clear
8:35 PM 64.4 °F 32.0 °F 30% 30.28 in 10.0 mi South 8.1 mph - N/A   Clear
8:55 PM 64.4 °F 32.0 °F 30% 30.29 in 10.0 mi South 8.1 mph - N/A   Clear
9:15 PM 62.6 °F 32.0 °F 32% 30.29 in 10.0 mi SSE 8.1 mph - N/A   Clear
9:35 PM 62.6 °F 32.0 °F 32% 30.30 in 10.0 mi SSE 8.1 mph - N/A   Clear
9:55 PM 62.6 °F 32.0 °F 32% 30.30 in 10.0 mi SSE 8.1 mph - N/A   Clear
10:15 PM 59.0 °F 32.0 °F 36% 30.30 in 10.0 mi SSE 8.1 mph - N/A   Clear
10:35 PM 57.2 °F 32.0 °F 38% 30.30 in 10.0 mi SSE 5.8 mph - N/A   Clear
10:55 PM 57.2 °F 32.0 °F 38% 30.30 in 10.0 mi SSE 6.9 mph - N/A   Clear
11:15 PM 55.4 °F 32.0 °F 41% 30.30 in 10.0 mi SE 6.9 mph - N/A   Clear
11:35 PM 55.4 °F 32.0 °F 41% 30.30 in 10.0 mi SE 8.1 mph - N/A   Clear
11:55 PM 55.4 °F 32.0 °F 41% 30.30 in 10.0 mi SE 6.9 mph - N/A   Clear